Starlink 1569

operational
NORAD ID: 46039 Int'l Des: 2020-055 Owner: SPXS Country: US Constellation: starlink
LEOCIRCULARSTARLINK_TYPE

About Starlink 1569

Description loading...

Live Position

Loading 3D Globe...

Upcoming Passes

Altitude History

Altitude vs Time

uPlot chart will show altitude changes over time

Two-Line Element Set

1 46039U 20055N 25304.83898113 -.00000731 00000-0 -30204-4 0 9995
2 46039 53.0563 345.0542 0001920 79.8513 280.2693 15.06395603289461
Epoch: Oct 31, 2025 • Age: 7 hours

Current Status

Altitude 547.7 km
Velocity 7.59 km/s
Sub-Earth Point 25.36°N, 54.95°E
Launch Date Aug 7, 2020
Age 5.2 years
Type internet

Technical Details

Classification Payload
Mass 260.00 kg
Dry Mass 248.00 kg
Total Mass 260.00 kg
Length 0.20 m
Diameter 2.80 m
Span 9.00 m
Shape Box + pan
Manufacturer SPXS
Bus Type Starlink
Phase Status In Orbit
Owner/State SPXS/US

Large Constellations

Loading constellations...